Simultaneous Nadir Overpasses (SNOs) Predictions

Prediction of SNOs between METOP-B and TERRA Satellite Orbit:

Table of predicted SNOs for the next 14.0 days since TLE Epoch: 12/5/2020
Index Date (METOP-B) Time (METOP-B) Lat,Lon (METOP-B) SZA (METOP-B ) Date (TERRA) Time (TERRA) Lat,Lon (TERRA) SZA (TERRA ) Distance(km) Time Diff (sec)
1 12/07/2020 13:03:05 -81.30,-148.81 73.19 12/07/2020 13:03:38 -81.30,-148.96 73.19 2.65 33
2 12/07/2020 13:53:46 81.30, 18.59 106.82 12/07/2020 13:53:04 81.30, 18.78 106.83 3.31 42
3 12/10/2020 08:37:29 -81.29, -82.87 73.01 12/10/2020 08:37:52 -81.29, -82.70 72.99 3.02 23
4 12/10/2020 09:28:09 81.30, 84.90 107.05 12/10/2020 09:27:18 81.29, 85.02 107.03 2.01 51
5 12/13/2020 04:11:50 -81.29, -16.19 72.81 12/13/2020 04:12:04 -81.30, -16.11 72.79 1.41 14
6 12/13/2020 05:02:30 81.30, 151.58 107.25 12/13/2020 05:01:30 81.30, 151.59 107.22 0.05 60
7 12/15/2020 23:46:12 -81.30, 50.48 72.66 12/15/2020 23:46:17 -81.30, 50.43 72.67 1.03 5
8 12/16/2020 00:36:52 81.30,-141.76 107.39 12/16/2020 00:35:43 81.30,-141.90 107.35 2.36 69
9 12/18/2020 18:29:56 81.29, -51.20 107.30 12/18/2020 18:31:04 81.28, -51.11 107.34 1.52 68



Historial Predications of SNOs between METOP-B and TERRA
